Location: Arroyo Retuerta
(40.5469°N, 4.3534°W)
Time: 15:01:48
(UTC+00:00)

Cosmos 1992 Rocket - Visible Passes

Search period start: 20 September 2020 00:00
Search period end: 30 September 2020 00:00
Orbit: 759 x 765 km, 74.0° (Epoch: 20 September)

Date Brightness Start Highest point End Pass type
(mag) Time Alt. Az. Time Alt. Az. Time Alt. Az.
20 Sep 6.2 02:32:45 19° N 02:32:45 19° N 02:34:17 10° NNE visible
21 Sep 6.8 01:54:52 14° NNE 01:54:52 14° NNE 01:55:30 10° NNE visible
21 Sep 6.3 03:35:01 12° NNW 03:35:01 12° NNW 03:35:52 10° NNW visible
22 Sep 6.4 02:57:06 14° NNW 02:57:06 14° NNW 02:58:00 10° N visible
23 Sep 6.7 02:19:10 13° N 02:19:10 13° N 02:19:40 10° N visible
